Barneston, Nebraska
Current Conditions -  °F | °C
As of 1:55 AM on Sunday 26 Oct 2014 (Local Time) from KMYZ Reporting Station
Clear Clear  
Wind Chill: 61°   Ceiling: Unl
Heat Index: 61°   Visibility: 10mi
Dew Point: 50°   Wind: 13mph
Humidity: 68%   Direction: 120°ESE
Pressure: 29.93"   Gusts: 18mph
Location:  40.05°N, 96.58°W
Report Text: KMYZ 260655Z AUTO 12011G16KT 10SM CLR 16/10 A2993 RMK AO2
Loading
Personal Weather Stations






























Interactive Weather Map
Tropical Storm Tracking
New forecast layout! Learn more

10-Day Weather Forecast

Advertisements
Track Severe Weather on mobile